Regional Weather Roundup
Issued by NWS

Home | Current Version | Previous Version | Graphics & Text | Print | Product List | Glossary On
Versions: 1 2 3 4 5 6 7 8 9 10 11 12 13 14 15 16 17 18 19 20 21 22 23 24 25 26 27 28 29 30 31 32 33 34 35 36 37 38 39 40 41 42 43 44 45 46 47 48 49 50
000
ASUS43 KFSD 260702
RWRSD

WEATHER ROUNDUP FOR SOUTH DAKOTA
NATIONAL WEATHER SERVICE SIOUX FALLS SD
200 AM CDT SUN APR 26 2015

NOTE: "FAIR" INDICATES FEW OR NO CLOUDS BELOW 12,000 FEET WITH NO
SIGNIFICANT WEATHER AND/OR OBSTRUCTIONS TO VISIBILITY.


SDZ001>005-009-010-012>017-260800-
NORTHWEST AND NORTH CENTRAL SOUTH DAKOTA

CITY           SKY/WX    TMP DP  RH WIND       PRES   REMARKS
BUFFALO          N/A     43  40  89 NW7       29.87R
FAITH            N/A     50  45  83 SE6       29.89R
MOBRIDGE       CLOUDY    52  43  71 SE16      29.89S
$$

SDZ012>016-024>037-041>051-057-063-072>074-260800-
SOUTHWEST AND SOUTH CENTRAL SOUTH DAKOTA

CITY           SKY/WX    TMP DP  RH WIND       PRES   REMARKS
RAPID CTY ARPT CLOUDY    45  41  86 N21       29.87S
PIERRE         CLOUDY    52  44  74 SE12      29.89S
CUSTER         CLOUDY    43  41  93 NE7       29.87S
ELLSWORTH AFB  CLOUDY    44  42  94 N18       29.87
PHILIP         LGT RAIN  52  46  80 E7        29.88R
PINE RIDGE     MOCLDY    47  44  90 E9        29.87R
WINNER         FAIR      48  41  76 SE9       29.89R
$$

SDZ004>011-016>023-039-040-260800-
NORTHEAST SOUTH DAKOTA

CITY           SKY/WX    TMP DP  RH WIND       PRES   REMARKS
ABERDEEN       CLOUDY    50  41  71 E6        29.97R
WATERTOWN      CLEAR     41  37  86 SE3       29.98R
BROOKINGS      CLEAR     39  36  87 CALM      29.99R
SISSETON         N/A     39  36  89 SW7       30.01R
$$

SDZ017-020-022-023-036>040-048>070-260800-
SOUTHEAST SOUTH DAKOTA

CITY           SKY/WX    TMP DP  RH WIND       PRES   REMARKS
SIOUX FALLS    PTCLDY    42  37  82 E5        29.96S
HURON          MOCLDY    48  39  71 SE9       29.95R
MITCHELL       MOCLDY    45  41  86 E6        29.95S
YANKTON        CLOUDY    50  39  66 E7        29.95R
$$

ABBREVIATIONS USED IN REMARKS
   TC - TEMPERATURE IN CELSIUS
  WCI - WIND CHILL INDEX
   HX - HEAT INDEX
  VSB - VISIBILITY



USA.gov is the U.S. government's official web portal to all federal, state and local government web resources and services.